This is the latest recevied weather packets stored in our database for station/object KE1THD. If no packets are shown the sender has not sent any weather packets the latest 10 day(s).
| Time | Temp. | Humidity | Pressure | Rain* | Wind** | Luminosity | Snow |
|---|---|---|---|---|---|---|---|
| 1777853220 | 21.67° C | 42% | 1005.7 hPa | 0 mm | - | 43 W/m² | - |
| 1777852917 | 21.67° C | 42% | 1005.5 hPa | 0 mm | - | 49 W/m² | - |
| 1777852615 | 21.67° C | 42% | 1005.5 hPa | 0 mm | - | 62 W/m² | - |
| 1777852311 | 21.67° C | 43% | 1005.3 hPa | 0 mm | - | 74 W/m² | - |
| 1777852010 | 21.67° C | 42% | 1005.6 hPa | 0 mm | - | 81 W/m² | - |
| 1777851708 | 21.67° C | 43% | 1005.6 hPa | 0 mm | - | 93 W/m² | - |
| 1777851404 | 22.22° C | 43% | 1005.6 hPa | 0 mm | - | 106 W/m² | - |
| 1777851100 | 22.22° C | 42% | 1005.8 hPa | 0 mm | - | 119 W/m² | - |
| 1777850797 | 22.22° C | 42% | 1005.8 hPa | 0 mm | - | 134 W/m² | - |
| 1777850494 | 22.22° C | 43% | 1005.8 hPa | 0 mm | - | 132 W/m² | - |
| 1777850192 | 21.67° C | 43% | 1005.7 hPa | 0 mm | - | 154 W/m² | - |
| 1777849888 | 21.67° C | 43% | 1005.7 hPa | 0 mm | - | 173 W/m² | - |
| 1777849585 | 21.67° C | 43% | 1006 hPa | 0 mm | - | 173 W/m² | - |
| 1777849283 | 21.67° C | 43% | 1005.9 hPa | 0 mm | - | 193 W/m² | - |
| 1777848980 | 22.22° C | 42% | 1005.9 hPa | 0 mm | - | 206 W/m² | - |
| 1777848679 | 22.22° C | 43% | 1005.9 hPa | 0 mm | - | 235 W/m² | - |
| 1777848377 | 22.22° C | 42% | 1005.8 hPa | 0 mm | - | 248 W/m² | - |
| 1777848075 | 22.22° C | 41% | 1005.9 hPa | 0 mm | - | 252 W/m² | - |
| 1777847773 | 22.22° C | 41% | 1005.9 hPa | 0 mm | - | 265 W/m² | - |
| 1777847468 | 22.22° C | 41% | 1006.1 hPa | 0 mm | - | 290 W/m² | - |
| 1777847166 | 22.22° C | 41% | 1005.9 hPa | 0 mm | - | 285 W/m² | - |
| 1777846864 | 22.78° C | 41% | 1005.9 hPa | 0 mm | - | 294 W/m² | - |
| 1777846562 | 22.78° C | 41% | 1005.7 hPa | 0 mm | - | 311 W/m² | - |
| 1777846259 | 22.78° C | 40% | 1005.9 hPa | 0 mm | - | 337 W/m² | - |
| 1777845955 | 22.78° C | 40% | 1006 hPa | 0 mm | - | 344 W/m² | - |
* Rain latest hour (hover to see other rain measurements)
** Current wind speed in m/s (hover to see current wind gust speed)